Printer-friendly version
Follow the MPC on Twitter Follow the MPC on Facebook The MPC blog
Minor Planet Center

MPEC 2008-T109: 2008 TR10

The following Minor Planet Electronic Circular may be linked-to from your own Web pages, but must not otherwise be redistributed electronically.

A form allowing access to any MPEC is at the bottom of this page.


Read MPEC 2008-T108 Read MPEC 2008-T110


M.P.E.C. 2008-T109                               Issued 2008 Oct.  9, 16:43 UT

     The Minor Planet Electronic Circulars contain information on unusual
         minor planets and routine data on comets.  They are published
   on behalf of Commission 20 of the International Astronomical Union by the
          Minor Planet Center, Smithsonian Astrophysical Observatory,
                          Cambridge, MA 02138, U.S.A.

             Prepared using the Tamkin Foundation Computer Network

                              MPC@CFA.HARVARD.EDU
          URL http://www.cfa.harvard.edu/iau/mpc.html  ISSN 1523-6714

                                   2008 TR10

Observations:
     K08T10R* C2008 10 08.36066 01 15 23.18 +20 39 04.4          21.1 V ET109G96
     K08T10R  C2008 10 08.36577 01 15 22.75 +20 39 00.2          20.9 V ET109G96
     K08T10R  C2008 10 08.37076 01 15 22.35 +20 38 55.4          21.2 V ET109G96
     K08T10R  C2008 10 08.37573 01 15 21.96 +20 38 50.9          21.5 V ET109G96
     K08T10R  C2008 10 08.40167 01 15 19.83 +20 38 28.3          21.1 V ET109G96
     K08T10R  C2008 10 08.40323 01 15 19.76 +20 38 26.9          20.8 V ET109G96
     K08T10R  C2008 10 08.40482 01 15 19.65 +20 38 25.4          21.2 V ET109G96
     K08T10R  C2008 10 08.40641 01 15 19.51 +20 38 24.5          20.7 V ET109G96
     K08T10R  C2008 10 08.40799 01 15 19.33 +20 38 22.7          21.0 V ET109G96
     K08T10R  C2008 10 08.40956 01 15 19.22 +20 38 21.1          20.9 V ET109G96
     K08T10R  C2008 10 08.41116 01 15 19.08 +20 38 20.2          21.0 V ET109G96
     K08T10R  C2008 10 08.41273 01 15 18.93 +20 38 18.4          21.0 V ET109G96
     K08T10R  C2008 10 09.00968 01 14 33.81 +20 29 28.6                 ET109J95
     K08T10R  C2008 10 09.02420 01 14 32.74 +20 29 16.3          20.8 R ET109J95
     K08T10R  C2008 10 09.19604 01 14 19.95 +20 26 47.7          21.3 V ET109H55
     K08T10R  C2008 10 09.20465 01 14 19.26 +20 26 40.1          21.2 V ET109H55
     K08T10R  C2008 10 09.21328 01 14 18.56 +20 26 33.0          21.3 V ET109H55
     K08T10R  C2008 10 09.32884 01 14 09.52 +20 24 51.7          20.9 V ET109G96
     K08T10R  C2008 10 09.33328 01 14 09.20 +20 24 47.9          21.2 V ET109G96
     K08T10R  C2008 10 09.33780 01 14 08.84 +20 24 43.7          20.6 V ET109G96
     K08T10R  C2008 10 09.34232 01 14 08.48 +20 24 39.9          21.3 V ET109G96
     K08T10R  C2008 10 09.39587 01 14 04.12 +20 23 51.9          20.3 R ET109H01
     K08T10R  C2008 10 09.40447 01 14 03.44 +20 23 44.1          20.3 R ET109H01
     K08T10R  C2008 10 09.41664 01 14 02.47 +20 23 33.1          20.9 R ET109H01
     K08T10R  C2008 10 09.42943 01 14 01.48 +20 23 22.2          21.0 V ET109291
     K08T10R  C2008 10 09.43528 01 14 01.01 +20 23 17.1          21.2 V ET109291
     K08T10R  C2008 10 09.43949 01 14 00.68 +20 23 13.5          21.1 V ET109291

Observer details:
291 LPL/Spacewatch II.  Observer J. V. Scotti.  1.8-m f/2.7 reflector + CCD.
G96 Mt. Lemmon Survey.  Observer A. Boattini.  Measurers E. C. Beshore,
    A. Boattini, G. J. Garradd, A. R. Gibbs, A. D. Grauer, R. E. Hill,
    R. A. Kowalski, S. M. Larson, R. H. McNaught.  1.5-m reflector + CCD.
H01 Magdalena Ridge Observatory, Socorro.  Observer W. H. Ryan.  2.4-m f/8.9
    reflector + CCD.
H55 Astronomical Research Observatory, Charleston.  Observer R. Holmes.
    Measurer H. Devore.  0.81-m f/4.0 astrograph + CCD.
J95 Great Shefford.  Observer P. Birtwhistle.  0.40-m f/6.0 Schmidt-Cassegrain
    + CCD.

Orbital elements:
2008 TR10                                                Earth MOID = 0.0797 AU
Epoch 2008 Nov. 30.0 TT = JDT 2454800.5                 MPC
M  43.98954              (2000.0)            P               Q
n   0.28069105     Peri.   30.30598     +0.40795517     +0.90909439
a   2.3102040      Node   263.88410     -0.85377515     +0.34711313
e   0.5295739      Incl.    4.86814     -0.32348197     +0.23034727
P   3.51           H   20.5           G   0.15           U   9
Residuals in seconds of arc
081008 G96  0.4-  0.3-    081008 G96  0.1+  0.0     081009 G96  0.0   0.2-
081008 G96  0.6-  0.1+    081008 G96  0.0   0.5+    081009 G96  0.1+  0.4-
081008 G96  0.4-  0.3-    081008 G96  0.3-  0.1+    081009 G96  0.2+  0.2-
081008 G96  0.2-  0.4-    081009 J95  0.5-  0.5-    081009 H01  0.1+  0.1+
081008 G96  0.3-  0.1+    081009 J95  0.8+  0.0     081009 H01  0.1+  0.0
081008 G96  0.5+  0.1+    081009 H55  0.2-  0.4+    081009 H01  0.1+  0.0
081008 G96  0.8+  0.1+    081009 H55  0.2-  0.3+    081009 291  0.0   0.1-
081008 G96  0.6+  0.6+    081009 H55  0.2-  0.8+    081009 291  0.1-  0.1+
081008 G96  0.1-  0.2+    081009 G96  0.6-  0.4-    081009 291  0.0   0.3+

Ephemeris:
2008 TR10                a,e,i = 2.31, 0.53, 5                   q = 1.0868
Date    TT    R. A. (2000) Decl.     Delta      r     Elong.  Phase     V
2008 10 01    01 25.26   +22 23.4    0.562    1.533   156.5    15.1    21.0
2008 10 11    01 12.09   +20 00.3    0.615    1.604   166.9     8.1    21.0
2008 10 21    01 01.49   +17 35.8    0.688    1.674   167.7     7.3    21.3
2008 10 31    00 54.60   +15 28.7    0.782    1.745   158.9    11.8    21.9
2008 11 10    00 51.75   +13 50.2    0.895    1.815   148.6    16.5    22.4

Sonia Keys                   (C) Copyright 2008 MPC           M.P.E.C. 2008-T109

Read MPEC 2008-T108 Read MPEC 2008-T110


MPEC number:

Enter an MPEC number in one of the following forms:

  • 1997-B01 (the full form)
  • J97B01 (the packed version of the full form)
  • B01 (the abbreviated form)

Valid HTML 4.01!